FW5801 Weather Reports


Display with metric or nautical units.
time (UTC)temp
F
wind
direction
speed
MPH
gust
MPH
rain 1hr
in
rain 24hr
in
rain mn
in
humidity
%
barometer
mb
20260903211609 93 285 6.0 15.0 0.00 0.00 0.00 52 1014.7
20260903211100 93 240 8.0 15.0 0.00 0.00 0.00 50 1014.7
20260903210558 94 261 7.0 14.0 0.00 0.00 0.00 51 1014.5
20260903210127 94 281 6.0 11.0 0.00 0.00 0.00 54 1014.5
20260903205558 94 258 6.0 11.0 0.00 0.00 0.00 53 1014.4
20260903205057 94 276 6.0 11.0 0.00 0.00 0.00 53 1014.4
20260903204603 94 277 6.0 11.0 0.00 0.00 0.00 54 1014.4
20260903204058 94 261 6.0 13.0 0.00 0.00 0.00 54 1014.4
20260903203557 93 273 5.0 17.0 0.00 0.00 0.00 53 1014.4
20260903203114 94 271 7.0 17.0 0.00 0.00 0.00 53 1014.6
20260903202601 94 271 7.0 17.0 0.00 0.00 0.00 52 1014.7
20260903202100 95 240 6.0 12.0 0.00 0.00 0.00 51 1014.8
20260903201606 95 250 6.0 11.0 0.00 0.00 0.00 53 1014.9
20260903201100 95 289 6.0 11.0 0.00 0.00 0.00 52 1015.0
20260903200600 95 263 5.0 12.0 0.00 0.00 0.00 53 1015.2
20260903200111 95 292 5.0 12.0 0.00 0.00 0.00 54 1015.4
20260903195559 95 275 7.0 14.0 0.00 0.00 0.00 51 1015.6
20260903195057 95 291 4.0 14.0 0.00 0.00 0.00 52 1015.6
20260903194603 95 272 8.0 13.0 0.00 0.00 0.00 52 1015.9
20260903194100 95 293 4.0 16.0 0.00 0.00 0.00 52 1015.9
20260903193556 95 265 8.0 16.0 0.00 0.00 0.00 53 1016.0
20260903193102 95 265 7.0 13.0 0.00 0.00 0.00 52 1016.0
20260903192557 95 296 7.0 13.0 0.00 0.00 0.00 51 1016.1
20260903192100 95 269 6.0 15.0 0.00 0.00 0.00 52 1016.2
20260903191602 95 218 5.0 15.0 0.00 0.00 0.00 52 1016.2
20260903191100 95 269 8.0 15.0 0.00 0.00 0.00 51 1016.3
20260903190600 95 233 4.0 13.0 0.00 0.00 0.00 51 1016.2
20260903190104 95 248 5.0 13.0 0.00 0.00 0.00 52 1016.2
20260903185600 95 256 6.0 13.0 0.00 0.00 0.00 54 1016.2
20260903185100 95 271 6.0 13.0 0.00 0.00 0.00 52 1016.3
20260903184601 95 238 7.0 13.0 0.00 0.00 0.00 51 1016.4
20260903184101 95 241 6.0 13.0 0.00 0.00 0.00 52 1016.4
20260903183602 95 248 6.0 13.0 0.00 0.00 0.00 52 1016.5
20260903183104 95 254 4.0 13.0 0.00 0.00 0.00 51 1016.5
20260903182602 95 277 7.0 13.0 0.00 0.00 0.00 48 1016.6
20260903182056 95 242 6.0 17.0 0.00 0.00 0.00 49 1016.5
20260903181603 95 273 6.0 17.0 0.00 0.00 0.00 51 1016.7
20260903181100 95 265 6.0 13.0 0.00 0.00 0.00 53 1016.6
20260903180600 95 283 7.0 12.0 0.00 0.00 0.00 52 1016.7
20260903180104 96 302 6.0 11.0 0.00 0.00 0.00 50 1016.8
20260903175557 95 277 4.0 11.0 0.00 0.00 0.00 53 1016.7
20260903175100 95 289 6.0 11.0 0.00 0.00 0.00 51 1016.9
20260903174603 95 277 4.0 13.0 0.00 0.00 0.00 51 1016.9
20260903174059 95 240 6.0 13.0 0.00 0.00 0.00 53 1017.0
20260903173600 94 290 5.0 13.0 0.00 0.00 0.00 54 1017.0
20260903173106 94 0 7.0 13.0 0.00 0.00 0.00 55 1017.1
20260903172600 94 279 6.0 13.0 0.00 0.00 0.00 52 1017.1
20260903172100 94 302 6.0 13.0 0.00 0.00 0.00 56 1017.0
20260903171617 94 294 6.0 16.0 0.00 0.00 0.00 54 1017.1
20260903171056 94 256 7.0 16.0 0.00 0.00 0.00 57 1017.1
20260903170557 94 306 3.0 11.0 0.00 0.00 0.00 57 1017.2
20260903165556 95 207 5.0 12.0 0.00 0.00 0.00 53 1017.0
20260903165100 95 273 4.0 9.0 0.00 0.00 0.00 55 1017.1
20260903164627 95 277 4.0 9.0 0.00 0.00 0.00 56 1017.1
20260903164100 95 321 3.0 11.0 0.00 0.00 0.00 55 1017.3
20260903163559 94 278 4.0 11.0 0.00 0.00 0.00 55 1017.2
20260903163101 94 257 5.0 11.0 0.00 0.00 0.00 57 1017.3
20260903162600 94 296 5.0 10.0 0.00 0.00 0.00 55 1017.4
20260903162057 94 289 4.0 8.0 0.00 0.00 0.00 58 1017.4
20260903161603 94 315 2.0 8.0 0.00 0.00 0.00 57 1017.4
20260903161056 94 355 2.0 6.0 0.00 0.00 0.00 59 1017.5
20260903160559 93 0 2.0 9.0 0.00 0.00 0.00 60 1017.6
20260903160128 93 0 1.0 9.0 0.00 0.00 0.00 60 1017.5
20260903155604 92 340 2.0 10.0 0.00 0.00 0.00 59 1017.5
20260903155100 92 340 4.0 10.0 0.00 0.00 0.00 60 1017.6
20260903154610 92 315 5.0 10.0 0.00 0.00 0.00 59 1017.5
20260903154100 92 269 4.0 10.0 0.00 0.00 0.00 61 1017.5
20260903153559 92 261 4.0 9.0 0.00 0.00 0.00 61 1017.6
20260903153108 91 267 2.0 9.0 0.00 0.00 0.00 63 1017.6
20260903152600 91 273 3.0 9.0 0.00 0.00 0.00 63 1017.5
20260903152102 91 244 4.0 9.0 0.00 0.00 0.00 63 1017.4
20260903151608 90 270 4.0 10.0 0.00 0.00 0.00 63 1017.5
20260903151057 90 270 5.0 10.0 0.00 0.00 0.00 64 1017.5
20260903150600 90 267 2.0 11.0 0.00 0.00 0.00 66 1017.5
20260903150111 89 345 5.0 11.0 0.00 0.00 0.00 65 1017.5
20260903145559 89 258 4.0 11.0 0.00 0.00 0.00 64 1017.5
20260903145056 89 269 4.0 10.0 0.00 0.00 0.00 66 1017.5
20260903144607 88 313 5.0 10.0 0.00 0.00 0.00 66 1017.6
20260903144058 88 274 5.0 9.0 0.00 0.00 0.00 66 1017.5
20260903143558 88 309 4.0 9.0 0.00 0.00 0.00 66 1017.5
20260903143112 88 273 5.0 10.0 0.00 0.00 0.00 67 1017.5
20260903142600 87 304 4.0 11.0 0.00 0.00 0.00 68 1017.6
20260903142056 87 262 4.0 11.0 0.00 0.00 0.00 69 1017.6
20260903141614 87 265 5.0 11.0 0.00 0.00 0.00 68 1017.5
20260903141057 87 277 3.0 9.0 0.00 0.00 0.00 70 1017.6
20260903140600 86 276 4.0 10.0 0.00 0.00 0.00 70 1017.6
20260903140107 86 286 5.0 10.0 0.00 0.00 0.00 70 1017.7
20260903135601 85 265 3.0 9.0 0.00 0.00 0.00 71 1017.7
20260903135100 85 279 4.0 9.0 0.00 0.00 0.00 71 1017.5
20260903134605 84 0 3.0 9.0 0.00 0.00 0.00 74 1017.6
20260903134100 84 280 4.0 10.0 0.00 0.00 0.00 74 1017.7
20260903133556 83 273 5.0 10.0 0.00 0.00 0.00 74 1017.7
20260903133111 83 261 4.0 10.0 0.00 0.00 0.00 76 1017.8
20260903132556 82 250 4.0 11.0 0.00 0.00 0.00 76 1017.7
20260903132059 82 250 4.0 11.0 0.00 0.00 0.00 77 1017.8
20260903131603 82 250 4.0 9.0 0.00 0.00 0.00 78 1017.8
20260903131100 81 257 3.0 9.0 0.00 0.00 0.00 78 1017.9
20260903130559 81 270 4.0 10.0 0.00 0.00 0.00 78 1018.0
20260903130105 80 265 4.0 10.0 0.00 0.00 0.00 80 1018.0
20260903125559 80 266 3.0 9.0 0.00 0.00 0.00 80 1018.0
20260903125100 79 255 4.0 9.0 0.00 0.00 0.00 81 1018.0
20260903124607 79 256 3.0 10.0 0.00 0.00 0.00 82 1018.2
20260903124056 78 266 4.0 10.0 0.00 0.00 0.00 82 1017.9
20260903123559 78 255 2.0 9.0 0.00 0.00 0.00 82 1018.0
20260903123105 77 271 1.0 9.0 0.00 0.00 0.00 83 1017.9
20260903122556 77 242 3.0 9.0 0.00 0.00 0.00 83 1018.1
20260903122056 77 227 3.0 8.0 0.00 0.00 0.00 84 1018.1
20260903121600 76 243 2.0 7.0 0.00 0.00 0.00 84 1018.1
20260903121056 76 281 3.0 7.0 0.00 0.00 0.00 84 1018.1
20260903120559 76 238 2.0 7.0 0.00 0.00 0.00 84 1018.1
20260903120107 76 263 3.0 6.0 0.00 0.00 0.00 84 1018.0
20260903115558 76 223 2.0 6.0 0.00 0.00 0.00 84 1018.1
20260903115059 76 260 3.0 6.0 0.00 0.00 0.00 84 1018.0
20260903114605 76 247 2.0 6.0 0.00 0.00 0.00 84 1017.9
20260903114056 75 244 2.0 7.0 0.00 0.00 0.00 85 1017.9
20260903113559 75 0 1.0 7.0 0.00 0.00 0.00 85 1017.8
20260903113102 75 248 0.0 4.0 0.00 0.00 0.00 85 1017.9
20260903112557 75 0 1.0 4.0 0.00 0.00 0.00 85 1017.8
20260903112100 75 267 1.0 3.0 0.00 0.00 0.00 85 1017.7
20260903111604 75 264 0.0 4.0 0.00 0.00 0.00 85 1017.5
20260903111059 75 259 1.0 5.0 0.00 0.00 0.00 85 1017.5
20260903110556 75 257 1.0 6.0 0.00 0.00 0.00 85 1017.4
20260903110103 75 241 1.0 7.0 0.00 0.00 0.00 85 1017.3
20260903105559 75 243 2.0 7.0 0.00 0.00 0.00 85 1017.4
20260903105059 75 288 2.0 8.0 0.00 0.00 0.00 85 1017.4
20260903104607 75 275 2.0 8.0 0.00 0.00 0.00 85 1017.3
20260903104056 75 273 2.0 9.0 0.00 0.00 0.00 85 1017.1
20260903103559 75 259 2.0 9.0 0.00 0.00 0.00 85 1017.3
20260903103103 75 284 2.0 7.0 0.00 0.00 0.00 85 1017.2
20260903102559 75 262 2.0 8.0 0.00 0.00 0.00 84 1017.2
20260903102056 75 286 2.0 8.0 0.00 0.00 0.00 84 1017.2
20260903101609 75 286 2.0 8.0 0.00 0.00 0.00 85 1017.1
20260903101104 75 235 2.0 8.0 0.00 0.00 0.00 85 1017.2
20260903100556 75 259 3.0 8.0 0.00 0.00 0.00 85 1017.1
20260903100109 75 263 2.0 8.0 0.00 0.00 0.00 85 1017.1
20260903095559 75 273 2.0 8.0 0.00 0.00 0.00 85 1017.2
20260903095056 75 282 3.0 8.0 0.00 0.00 0.00 85 1017.0
20260903094615 75 252 2.0 8.0 0.00 0.00 0.00 84 1017.0
20260903094056 75 241 1.0 7.0 0.00 0.00 0.00 84 1017.0
20260903093600 75 284 2.0 7.0 0.00 0.00 0.00 84 1017.1
20260903093115 76 273 2.0 7.0 0.00 0.00 0.00 84 1017.1
20260903092556 76 262 2.0 8.0 0.00 0.00 0.00 84 1017.0
20260903092100 76 0 2.0 8.0 0.00 0.00 0.00 84 1016.9
20260903091607 75 252 2.0 7.0 0.00 0.00 0.00 84 1016.8
20260903091059 75 247 3.0 8.0 0.00 0.00 0.00 85 1017.0
20260903090556 75 246 2.0 8.0 0.00 0.00 0.00 85 1016.9
20260903090107 75 226 2.0 8.0 0.00 0.00 0.00 85 1017.0
20260903085556 75 250 2.0 5.0 0.00 0.00 0.00 85 1017.0
20260903085059 75 264 1.0 4.0 0.00 0.00 0.00 85 1017.0
20260903084602 75 267 0.0 3.0 0.00 0.00 0.00 85 1017.1
20260903084100 75 274 1.0 4.0 0.00 0.00 0.00 85 1017.0
20260903083600 75 272 1.0 6.0 0.00 0.00 0.00 85 1016.9
20260903083100 75 258 1.0 6.0 0.00 0.00 0.00 85 1017.1
20260903082559 75 257 1.0 6.0 0.00 0.00 0.00 84 1016.9
20260903082059 75 246 1.0 6.0 0.00 0.00 0.00 84 1017.0
20260903081605 75 257 2.0 6.0 0.00 0.00 0.00 84 1017.0
20260903081102 76 258 2.0 6.0 0.00 0.00 0.00 84 1016.9
20260903080556 76 248 2.0 7.0 0.00 0.00 0.00 84 1016.9
20260903080110 76 244 3.0 7.0 0.00 0.00 0.00 84 1017.0
20260903075600 76 241 1.0 7.0 0.00 0.00 0.00 84 1017.0
20260903075059 76 258 3.0 7.0 0.00 0.00 0.00 84 1017.0
20260903074600 76 265 2.0 6.0 0.00 0.00 0.00 84 1016.9
20260903074059 76 259 2.0 6.0 0.00 0.00 0.00 84 1017.0
20260903073559 76 255 1.0 6.0 0.00 0.00 0.00 84 1017.1
20260903073107 76 271 2.0 6.0 0.00 0.00 0.00 84 1017.0
20260903072557 76 248 2.0 7.0 0.00 0.00 0.00 84 1017.0
20260903072057 76 269 2.0 7.0 0.00 0.00 0.00 84 1017.1
20260903071610 76 252 0.0 4.0 0.00 0.00 0.00 84 1017.0
20260903071056 76 263 1.0 4.0 0.00 0.00 0.00 84 1017.0
20260903070556 76 254 1.0 4.0 0.00 0.00 0.00 83 1017.1
20260903070107 76 0 1.0 4.0 0.00 0.00 0.00 83 1017.0
20260903065600 76 0 0.0 4.0 0.00 0.00 0.00 83 1017.1
20260903065056 76 281 1.0 4.0 0.00 0.00 0.00 83 1017.0
20260903064603 77 271 0.0 6.0 0.00 0.00 0.00 82 1017.0
20260903064056 77 269 1.0 6.0 0.00 0.00 0.00 82 1017.2
20260903063559 77 257 1.0 4.0 0.00 0.00 0.00 82 1017.1
20260903063127 77 0 1.0 4.0 0.00 0.00 0.00 82 1017.1
20260903062557 77 0 1.0 5.0 0.00 0.00 0.00 81 1017.1
20260903062059 77 279 0.0 6.0 0.00 0.00 0.00 81 1017.0
20260903061605 78 0 1.0 8.0 0.00 0.00 0.00 81 1017.1
20260903061057 78 0 2.0 8.0 0.00 0.00 0.00 81 1017.2
20260903060556 78 265 2.0 8.0 0.00 0.00 0.00 80 1017.1
20260903060118 78 255 3.0 8.0 0.00 0.00 0.00 80 1017.0
20260903055556 78 227 3.0 8.0 0.00 0.00 0.00 80 1017.0
20260903055059 78 259 3.0 8.0 0.00 0.00 0.00 80 1016.9
20260903054603 78 238 3.0 8.0 0.00 0.00 0.00 80 1017.1
20260903054056 78 254 3.0 9.0 0.00 0.00 0.00 80 1017.0
20260903053600 78 234 2.0 10.0 0.00 0.00 0.00 80 1016.8
20260903053105 78 233 3.0 10.0 0.00 0.00 0.00 80 1016.9
20260903052557 78 205 2.0 8.0 0.00 0.00 0.00 80 1017.0
20260903052057 78 219 3.0 8.0 0.00 0.00 0.00 80 1016.9
20260903051608 79 223 2.0 7.0 0.00 0.00 0.00 79 1016.7
20260903051057 79 242 2.0 8.0 0.00 0.00 0.00 79 1016.7
20260903050556 79 251 2.0 9.0 0.00 0.00 0.00 79 1016.6
20260903050128 79 245 2.0 9.0 0.00 0.00 0.00 79 1016.7
20260903045600 79 245 3.0 9.0 0.00 0.00 0.00 79 1016.7
20260903045100 79 234 3.0 8.0 0.00 0.00 0.00 79 1016.6
20260903044606 79 267 3.0 8.0 0.00 0.00 0.00 79 1016.5
20260903044058 79 0 3.0 8.0 0.00 0.00 0.00 79 1016.5
20260903043557 79 239 3.0 7.0 0.00 0.00 0.00 79 1016.4
20260903043103 79 218 3.0 7.0 0.00 0.00 0.00 78 1016.5
20260903042556 79 263 3.0 7.0 0.00 0.00 0.00 78 1016.4
20260903042056 79 250 2.0 7.0 0.00 0.00 0.00 78 1016.4
20260903041601 79 235 2.0 6.0 0.00 0.00 0.00 78 1016.3
20260903041056 79 250 2.0 6.0 0.00 0.00 0.00 78 1016.4
20260903040559 80 240 1.0 7.0 0.00 0.00 0.00 78 1016.4
20260903040105 80 227 3.0 7.0 0.00 0.00 0.00 78 1016.4
20260903035556 80 246 2.0 6.0 0.00 0.00 0.00 78 1016.5
20260903035057 80 240 2.0 7.0 0.00 0.00 0.00 78 1016.5
20260903034601 80 242 2.0 7.0 0.00 0.00 0.00 78 1016.6
20260903034057 80 250 2.0 7.0 0.00 0.00 0.00 78 1016.6
20260903033556 80 221 1.0 5.0 0.00 0.00 0.00 78 1016.6
20260903033103 80 0 1.0 5.0 0.00 0.00 0.00 78 1016.6
20260903032600 80 226 1.0 5.0 0.00 0.00 0.00 78 1016.6
20260903032101 80 0 0.0 5.0 0.00 0.00 0.00 78 1016.7
20260903031601 80 0 0.0 5.0 0.00 0.00 0.00 77 1016.7
20260903031104 80 227 1.0 4.0 0.00 0.00 0.00 77 1016.6
20260903030600 81 0 0.0 5.0 0.00 0.00 0.00 77 1016.8
20260903030108 81 0 1.0 5.0 0.00 0.00 0.00 77 1016.7
20260903025600 81 245 0.0 2.0 0.00 0.00 0.00 76 1016.8
20260903025103 81 0 0.0 3.0 0.00 0.00 0.00 76 1016.8
20260903024604 81 0 0.0 3.0 0.00 0.00 0.00 76 1016.8
20260903024100 81 0 0.0 4.0 0.00 0.00 0.00 75 1016.9
20260903023600 81 0 1.0 4.0 0.00 0.00 0.00 75 1017.1
20260903023102 82 230 1.0 4.0 0.00 0.00 0.00 74 1017.0
20260903022600 82 0 0.0 4.0 0.00 0.00 0.00 74 1017.0
20260903022100 82 0 0.0 4.0 0.00 0.00 0.00 74 1017.1
20260903021605 82 252 1.0 5.0 0.00 0.00 0.00 74 1017.1
20260903021101 82 270 1.0 5.0 0.00 0.00 0.00 74 1017.0
20260903020600 82 0 2.0 5.0 0.00 0.00 0.00 74 1017.0
20260903020106 82 236 2.0 5.0 0.00 0.00 0.00 74 1017.1
20260903015601 82 222 1.0 4.0 0.00 0.00 0.00 73 1017.1
20260903015103 82 232 0.0 4.0 0.00 0.00 0.00 73 1017.0
20260903014607 82 233 2.0 4.0 0.00 0.00 0.00 73 1016.9
20260903014100 82 236 0.0 6.0 0.00 0.00 0.00 73 1016.9
20260903013600 83 234 1.0 6.0 0.00 0.00 0.00 73 1016.9
20260903013102 83 239 1.0 4.0 0.00 0.00 0.00 73 1016.9
20260903012600 83 258 0.0 4.0 0.00 0.00 0.00 72 1016.8
20260903012100 83 0 1.0 4.0 0.00 0.00 0.00 72 1016.8
20260903011620 83 0 2.0 6.0 0.00 0.00 0.00 72 1016.8
20260903011100 83 253 2.0 6.0 0.00 0.00 0.00 72 1016.8
20260903010558 83 265 2.0 6.0 0.00 0.00 0.00 72 1016.7
20260903010108 83 217 2.0 6.0 0.00 0.00 0.00 72 1016.7
20260903005601 84 222 3.0 6.0 0.00 0.00 0.00 72 1016.7
20260903005100 84 257 2.0 8.0 0.00 0.00 0.00 72 1016.6
20260903004609 84 238 2.0 8.0 0.00 0.00 0.00 71 1016.7
20260903004100 84 258 3.0 8.0 0.00 0.00 0.00 72 1016.6
20260903003604 84 243 1.0 5.0 0.00 0.00 0.00 71 1016.6
20260903003105 84 227 2.0 5.0 0.00 0.00 0.00 71 1016.5
20260903002600 85 223 3.0 5.0 0.00 0.00 0.00 71 1016.6
20260903002058 85 228 2.0 5.0 0.00 0.00 0.00 70 1016.5
20260903001607 85 244 2.0 5.0 0.00 0.00 0.00 70 1016.5
20260903001057 86 230 2.0 6.0 0.00 0.00 0.00 69 1016.5
20260903000557 86 236 2.0 6.0 0.00 0.00 0.00 69 1016.6
20260903000108 86 0 1.0 6.0 0.00 0.00 0.00 68 1016.5
20260902235556 86 215 2.0 9.0 0.00 0.00 0.00 68 1016.6
20260902235056 87 239 3.0 9.0 0.00 0.00 0.00 67 1016.4
20260902234606 87 217 2.0 8.0 0.00 0.00 0.00 66 1016.3
20260902234056 87 213 3.0 6.0 0.00 0.00 0.00 66 1016.2
20260902233556 88 253 2.0 7.0 0.00 0.00 0.00 65 1016.2
20260902233104 88 244 3.0 8.0 0.00 0.00 0.00 65 1016.3
20260902232558 88 229 3.0 8.0 0.00 0.00 0.00 64 1016.2
20260902232057 89 263 3.0 8.0 0.00 0.00 0.00 63 1016.1
20260902231610 89 216 2.0 8.0 0.00 0.00 0.00 63 1016.0
20260902231057 89 235 4.0 8.0 0.00 0.00 0.00 62 1016.1
20260902230556 89 232 3.0 9.0 0.00 0.00 0.00 62 1016.2
20260902230107 90 250 3.0 9.0 0.00 0.00 0.00 61 1016.3
20260902225557 90 246 4.0 9.0 0.00 0.00 0.00 60 1016.3
20260902225057 90 246 3.0 8.0 0.00 0.00 0.00 59 1016.3
20260902224604 91 257 3.0 9.0 0.00 0.00 0.00 59 1016.3
20260902224056 91 260 2.0 9.0 0.00 0.00 0.00 58 1016.3
20260902223556 91 250 3.0 10.0 0.00 0.00 0.00 57 1016.3
20260902223108 92 209 3.0 10.0 0.00 0.00 0.00 57 1016.3
20260902222556 92 261 3.0 9.0 0.00 0.00 0.00 57 1016.3
20260902222056 92 0 3.0 8.0 0.00 0.00 0.00 57 1016.2
20260902221609 92 219 3.0 10.0 0.00 0.00 0.00 56 1016.3
20260902221057 92 0 3.0 10.0 0.00 0.00 0.00 56 1016.3
20260902220557 92 237 5.0 10.0 0.00 0.00 0.00 55 1016.3
20260902220112 93 244 5.0 10.0 0.00 0.00 0.00 54 1016.5
20260902215556 93 269 3.0 9.0 0.00 0.00 0.00 55 1016.3
20260902215056 93 238 4.0 13.0 0.00 0.00 0.00 54 1016.4
20260902214602 93 262 4.0 13.0 0.00 0.00 0.00 53 1016.5
20260902214100 93 250 6.0 14.0 0.00 0.00 0.00 53 1016.3
20260902213557 93 275 4.0 14.0 0.00 0.00 0.00 54 1016.5
20260902213107 93 219 6.0 14.0 0.00 0.00 0.00 54 1016.4
20260902212559 93 279 6.0 13.0 0.00 0.00 0.00 55 1016.4
20260902212057 93 257 7.0 13.0 0.00 0.00 0.00 54 1016.5